Location: Albany
(35.0000°S, 118.0000°E)
Time: 13:45:34
(UTC-04:00)

Amateur Radio Satellites - All Passes

Search period start: 30 June 2016 13:15
Search period end: 01 July 2016 13:15
Location: Albany, 35.0000°S, 118.0000°E

Satellite Date Start Highest point End Downlink Frequencies (MHz)
Time Altitude Azimuth
Oscar 19 30 Jun 13:18:02 13:23:03 49° 280° (W) 13:28:09 437.125/150
SWISSCUBE 30 Jun 13:39:27 13:43:26 25° 84° (E) 13:47:22 437.505
AO-7 30 Jun 13:39:47 13:46:27 28° 121° (ESE) 13:53:08 29.400- 29.500
ITAMSAT 1 30 Jun 13:45:09 13:50:02 42° 109° (ESE) 13:54:58 435.822/435.867
JUGNU 30 Jun 13:50:50 13:53:59 15° 9° (N) 13:57:09 437.505
Gurwin Techsat 1B 30 Jun 13:51:02 13:56:17 58° 280° (W) 14:01:36 435.225
TISAT 1 30 Jun 13:51:06 13:55:06 40° 253° (WSW) 13:59:02 437.305
RS-15 30 Jun 13:56:50 14:04:45 20° 212° (SSW) 14:12:30 29.354- 29.394
BEESAT 30 Jun 14:04:03 14:08:36 41° 81° (E) 14:13:08 436.000
ITUPSAT 1 30 Jun 14:06:26 14:11:02 43° 81° (E) 14:15:36 437.325
ISS 30 Jun 14:08:53 14:12:06 45° 141° (SE) 14:15:18 145.825
SO-50 30 Jun 14:16:44 14:20:56 47° 65° (ENE) 14:25:12 436.795
Cosmos 2504 30 Jun 14:17:12 14:24:44 46° 259° (W) 14:31:53 435.465 / 435.565
AIST 2 30 Jun 14:25:47 14:27:59 14° 288° (WNW) 14:30:10 435.215
YUBILEINY 30 Jun 14:31:53 14:35:30 13° 243° (WSW) 14:39:07 435.215
SRMSAT 30 Jun 15:10:39 15:12:25 11° 15° (NNE) 15:14:12 437.500
SWISSCUBE 30 Jun 15:17:01 15:21:09 29° 250° (WSW) 15:25:15 437.505
ITAMSAT 1 30 Jun 15:25:54 15:29:37 20° 275° (W) 15:33:23 435.822/435.867
AO-7 30 Jun 15:30:23 15:38:36 62° 284° (WNW) 15:46:53 29.400- 29.500
AIST 1 30 Jun 15:35:49 15:39:24 25° 91° (E) 15:43:02
JUGNU 30 Jun 15:38:26 15:42:16 18° 359° (N) 15:46:05 437.505
BEESAT 30 Jun 15:42:48 15:46:02 18° 246° (WSW) 15:49:15 436.000
ITUPSAT 1 30 Jun 15:45:19 15:48:29 18° 246° (WSW) 15:51:38 437.325
ISS 30 Jun 15:46:29 15:48:14 14° 307° (NW) 15:49:58 145.825
KKS-1 30 Jun 15:55:58 16:00:31 80° 79° (E) 16:04:59 437.445
SO-50 30 Jun 15:58:49 16:01:39 17° 228° (SW) 16:04:31 436.795
MOZHAYETS 4 30 Jun 16:01:37 16:06:17 85° 78° (ENE) 16:10:54
Cubesat XI-IV 30 Jun 16:11:31 16:12:37 11° 119° (ESE) 16:13:45 437.490
HORYU 2 30 Jun 16:15:46 16:20:16 85° 105° (ESE) 16:24:49 437.375
RS-15 30 Jun 16:20:26 16:23:49 12° 174° (S) 16:27:10 29.354- 29.394
NOAA 18 30 Jun 16:20:58 16:24:22 17° 117° (ESE) 16:27:47 137.9125
STARS 30 Jun 16:22:17 16:26:46 77° 78° (ENE) 16:31:10 437.465
GONETS M04 30 Jun 16:32:19 16:39:10 26° 97° (E) 16:46:03
CUTE-I 30 Jun 16:41:49 16:45:53 23° 113° (ESE) 16:49:59 437.470
CUSAT 1 30 Jun 16:54:55 17:01:23 35° 104° (ESE) 17:08:30 437.405
Cosmos 2499 30 Jun 16:56:28 17:01:32 20° 96° (E) 17:06:26 435.465 / 435.565
SRMSAT 30 Jun 16:57:01 17:00:50 18° 5° (N) 17:04:40 437.500
NOAA 15 30 Jun 17:01:37 17:06:40 49° 108° (ESE) 17:11:48 137.62
DOVE 4 30 Jun 17:05:20 17:06:44 11° 118° (ESE) 17:08:09 437.250
AIST 1 30 Jun 17:13:33 17:16:55 21° 256° (WSW) 17:20:20
BRITE-PL 30 Jun 17:27:00 17:31:45 84° 101° (E) 17:37:01 437.365/2234.400
JUGNU 30 Jun 17:27:38 17:30:31 14° 349° (N) 17:33:24 437.505
CUBESAT XI-V 30 Jun 17:35:00 17:39:47 84° 259° (W) 17:44:31 437.345
DANDE 30 Jun 17:38:08 17:43:51 33° 102° (ESE) 17:50:39 436.750
Cubesat XI-IV 30 Jun 17:46:30 17:51:53 87° 283° (WNW) 17:57:19 437.490
GOMX 1 30 Jun 17:49:22 17:54:19 66° 105° (ESE) 17:59:40 467.674
LilacSat-2 30 Jun 17:54:33 17:58:26 64° 280° (W) 18:02:21 437.200
NOAA 18 30 Jun 17:58:59 18:04:28 60° 281° (WNW) 18:09:59 137.9125
STRAND 1 30 Jun 18:13:25 18:16:10 14° 88° (E) 18:18:54 437.568
CUTE 1.7 + AOD 2 30 Jun 18:20:13 18:22:02 13° 114° (ESE) 18:23:51 437.475
CUTE-I 30 Jun 18:20:36 18:25:37 40° 279° (W) 18:30:41 437.470
HO-68 30 Jun 18:24:18 18:30:29 32° 116° (ESE) 18:36:41 435.675
GONETS M04 30 Jun 18:26:35 18:35:15 60° 260° (W) 18:44:05
RS-15 30 Jun 18:32:37 18:41:46 29° 139° (SE) 18:50:48 29.354- 29.394
CUSAT 1 30 Jun 18:36:39 18:43:26 45° 272° (W) 18:50:56 437.405
DOVE 4 30 Jun 18:38:27 18:43:34 84° 279° (W) 18:48:56 437.250
NOAA 15 30 Jun 18:43:14 18:46:40 17° 273° (W) 18:50:08 137.62
SRMSAT 30 Jun 18:45:31 18:49:17 17° 354° (N) 18:53:05 437.500
Cosmos 2499 30 Jun 18:46:29 18:54:00 61° 261° (W) 19:01:10 435.465 / 435.565
AAUSAT CUBESAT 2 30 Jun 18:53:14 18:54:28 11° 114° (ESE) 18:55:43 437.432
M-CUBED/EXP-1 PRIME 30 Jun 18:59:59 19:02:34 15° 119° (ESE) 19:05:10 437.505
CUBEBUG 2 30 Jun 19:02:26 19:05:07 15° 113° (ESE) 19:07:48 437.445
CINEMA 3 30 Jun 19:17:55 19:22:57 76° 103° (ESE) 19:28:03 145.822/145.860
DANDE 30 Jun 19:20:34 19:26:35 41° 274° (W) 19:33:49 436.750
Oscar 11 30 Jun 19:25:26 19:26:33 11° 115° (ESE) 19:27:42 145.826/435.025
COMPASS 1 30 Jun 19:26:44 19:30:33 36° 107° (ESE) 19:34:25 437.405
GOMX 1 30 Jun 19:30:55 19:32:55 12° 269° (W) 19:34:58 467.674
CANX-2 30 Jun 19:33:36 19:37:50 72° 281° (WNW) 19:42:07 2200.000
FUNcube-1 30 Jun 19:35:25 19:37:35 13° 113° (ESE) 19:39:45 145.935
PRISM 30 Jun 19:38:23 19:40:32 14° 87° (E) 19:42:42 437.425
UWE-3 30 Jun 19:43:28 19:47:25 28° 109° (ESE) 19:51:20 435.000/436.395/437.385
AO-85 30 Jun 19:48:15 19:51:46 36° 66° (ENE) 19:55:24 145.980
STRAND 1 30 Jun 19:50:35 19:55:38 56° 253° (WSW) 20:00:39 437.568
AUBIESAT-1 30 Jun 19:50:54 19:55:15 40° 112° (ESE) 19:59:38 437.475
SEEDS 30 Jun 19:52:52 19:57:03 70° 282° (WNW) 20:01:17 437.485
CUTE 1.7 + AOD 2 30 Jun 19:53:19 19:57:24 47° 279° (W) 20:01:32 437.475
HO-68 30 Jun 20:11:07 20:17:55 44° 280° (W) 20:24:47 435.675
DELFI C3 30 Jun 20:18:52 20:21:37 18° 111° (ESE) 20:24:23 145.870
AAUSAT CUBESAT 2 30 Jun 20:25:26 20:29:27 51° 279° (W) 20:33:32 437.432
M-CUBED/EXP-1 PRIME 30 Jun 20:31:55 20:36:33 59° 285° (WNW) 20:41:16 437.505
SRMSAT 30 Jun 20:36:23 20:37:43 11° 345° (NNW) 20:39:03 437.500
CUBEBUG 2 30 Jun 20:36:41 20:41:17 49° 279° (W) 20:45:53 437.445
RS-15 30 Jun 20:44:22 20:55:17 80° 296° (WNW) 21:06:16 29.354- 29.394
ZACube-1 30 Jun 20:52:34 20:57:06 74° 283° (WNW) 21:01:38 437.345
Oscar 11 30 Jun 20:57:51 21:02:08 58° 280° (W) 21:06:28 145.826/435.025
COMPASS 1 30 Jun 21:03:54 21:06:13 15° 273° (W) 21:08:34 437.405
FUNcube-1 30 Jun 21:08:57 21:13:22 50° 280° (W) 21:17:46 145.935
PRISM 30 Jun 21:12:00 21:16:00 40° 253° (WSW) 21:19:57 437.425
UWE-3 30 Jun 21:20:00 21:23:46 24° 276° (W) 21:27:33 435.000/436.395/437.385
AUBIESAT-1 30 Jun 21:26:31 21:29:46 19° 278° (W) 21:33:02 437.475
AO-85 30 Jun 21:29:56 21:32:21 16° 229° (SW) 21:34:49 145.980
HUMSAT D 30 Jun 21:44:48 21:49:03 85° 286° (WNW) 21:53:18 437.325/437.525
ANTELSAT 30 Jun 21:48:23 21:52:03 26° 84° (E) 21:55:39 437.575/2403.000
DELFI C3 30 Jun 21:52:53 21:56:15 27° 277° (W) 21:59:41 145.870
50 SAT 30 Jun 21:57:42 21:58:03 10° 113° (ESE) 21:58:23 437.505
AISAT 30 Jun 22:09:42 22:12:52 19° 112° (ESE) 22:16:05 437.250
ESTCUBE 1 30 Jun 22:14:38 22:18:41 33° 109° (ESE) 22:22:45 437.505/2401.250
DX 1 30 Jun 22:21:09 22:24:13 19° 113° (ESE) 22:27:18 434.975-435.025
QB50P1 30 Jun 22:32:06 22:33:47 12° 88° (E) 22:35:28 145.935-145.965
POPSAT HIP 1 30 Jun 22:35:16 22:37:17 13° 87° (E) 22:39:17 437.405
TIGRISAT 30 Jun 22:38:44 22:43:05 79° 256° (WSW) 22:47:21 435.000
YUBILEINY 30 Jun 22:43:04 22:51:25 46° 103° (ESE) 22:59:39 435.215
UNISAT 6 30 Jun 22:44:45 22:49:04 62° 255° (WSW) 22:53:17 437.425
DUCHIFAT 1 30 Jun 22:46:10 22:48:49 16° 86° (E) 22:51:25 145.980
QB50P2 30 Jun 22:47:12 22:50:23 20° 85° (E) 22:53:32 145.880/145.840
CUBEBUG 1 30 Jun 22:48:50 22:53:08 54° 106° (ESE) 22:57:31 437.445
POLYITAN 1 30 Jun 22:49:49 22:53:02 21° 85° (E) 22:56:13 437.675
SO-50 30 Jun 22:51:20 22:54:50 20° 130° (SE) 22:58:23 436.795
RS-15 30 Jun 23:00:51 23:05:47 14° 279° (W) 23:10:47 29.354- 29.394
VELOX 1 30 Jun 23:03:21 23:07:47 75° 103° (ESE) 23:12:19 145.980
JAS-2 30 Jun 23:16:03 23:20:53 18° 89° (E) 23:25:45 435.910
ANTELSAT 30 Jun 23:25:16 23:28:36 22° 249° (WSW) 23:31:53 437.575/2403.000
SPROUT 30 Jun 23:27:47 23:32:02 57° 105° (ESE) 23:36:21 437.525
50 SAT 30 Jun 23:27:49 23:31:17 41° 279° (W) 23:34:46 437.505
UKube-1 30 Jun 23:31:00 23:35:21 85° 281° (W) 23:39:46 .
BUGSAT 1 30 Jun 23:31:08 23:34:32 23° 84° (E) 23:37:51 437.445
PCSat 30 Jun 23:37:59 23:40:53 15° 77° (ENE) 23:43:46 145.827
AISAT 30 Jun 23:45:00 23:49:03 34° 278° (W) 23:53:11 437.250
Cosmos 2491 30 Jun 23:48:38 23:57:20 71° 87° (E) 00:06:10 435.465 / 435.565
ESTCUBE 1 30 Jun 23:52:19 23:55:30 19° 274° (W) 23:58:44 437.505/2401.250
DX 1 30 Jun 23:56:08 00:00:07 33° 278° (W) 00:04:09 434.975-435.025
NANOSAT C BR1 01 Jul 00:01:07 00:05:19 55° 255° (WSW) 00:09:26 145.865
QB50P1 01 Jul 00:05:40 00:09:47 45° 254° (WSW) 00:13:49 145.935-145.965
POPSAT HIP 1 01 Jul 00:09:12 00:13:15 42° 253° (WSW) 00:17:14 437.405
Cosmos 2504 01 Jul 00:12:37 00:19:41 49° 101° (E) 00:27:00 435.465 / 435.565
DUCHIFAT 1 01 Jul 00:20:43 00:24:35 34° 252° (WSW) 00:28:23 145.980
QB50P2 01 Jul 00:22:30 00:26:10 28° 251° (WSW) 00:29:46 145.880/145.840
POLYITAN 1 01 Jul 00:25:11 00:28:48 27° 251° (WSW) 00:32:22 437.675
CUBEBUG 1 01 Jul 00:28:28 00:29:43 11° 271° (W) 00:30:59 437.445
SO-50 01 Jul 00:31:00 00:35:28 43° 294° (WNW) 00:39:59 436.795
TISAT 1 01 Jul 00:38:41 00:42:57 87° 288° (WNW) 00:47:19 437.305
YUBILEINY 01 Jul 00:40:20 00:47:52 34° 265° (W) 00:55:21 435.215
O/OREOS (USA 219) 01 Jul 00:42:13 00:45:39 21° 79° (E) 00:49:06 437.305
SWISSCUBE 01 Jul 00:43:10 00:46:41 21° 113° (ESE) 00:50:14 437.505
BEESAT 3 01 Jul 00:53:06 00:56:55 50° 64° (ENE) 01:00:46 437.485
JAS-2 01 Jul 00:58:44 01:06:22 82° 255° (WSW) 01:14:16 435.910
BUGSAT 1 01 Jul 01:06:27 01:09:47 23° 250° (WSW) 01:13:03 437.445
BEESAT 01 Jul 01:07:16 01:11:32 33° 109° (ESE) 01:15:51 436.000
SPROUT 01 Jul 01:08:15 01:08:18 10° 271° (W) 01:08:21 437.525
ITUPSAT 1 01 Jul 01:09:59 01:14:18 35° 109° (ESE) 01:18:40 437.325
PCSat 01 Jul 01:18:19 01:23:40 62° 242° (WSW) 01:29:04 145.827
Oscar 19 01 Jul 01:32:45 01:38:02 77° 77° (ENE) 01:43:14 437.125/150
BEESAT 2 01 Jul 01:35:57 01:39:56 88° 64° (ENE) 01:43:57 435.950
Cosmos 2491 01 Jul 01:48:32 01:54:55 22° 249° (WSW) 02:01:24 435.465 / 435.565
ITAMSAT 1 01 Jul 02:02:08 02:05:53 20° 86° (E) 02:09:35 435.822/435.867
Cosmos 2504 01 Jul 02:06:53 02:12:35 25° 265° (W) 02:18:28 435.465 / 435.565
Gurwin Techsat 1B 01 Jul 02:10:32 02:15:55 75° 77° (ENE) 02:21:15 435.225
SWISSCUBE 01 Jul 02:19:51 02:24:12 35° 278° (W) 02:28:38 437.505
O/OREOS (USA 219) 01 Jul 02:20:43 02:24:48 31° 244° (WSW) 02:28:58 437.305
BEESAT 3 01 Jul 02:33:00 02:34:53 13° 228° (SW) 02:36:46 437.485
AIST 2 01 Jul 02:41:08 02:44:08 19° 70° (ENE) 02:47:09 435.215
BEESAT 01 Jul 02:45:41 02:49:19 21° 275° (W) 02:53:00 436.000
JAS-2 01 Jul 02:46:18 02:50:20 15° 240° (WSW) 02:54:28 435.910
ITUPSAT 1 01 Jul 02:48:37 02:52:11 21° 275° (W) 02:55:46 437.325
KKS-1 01 Jul 02:50:29 02:54:48 47° 107° (ESE) 02:59:11 437.445
MOZHAYETS 4 01 Jul 02:59:58 03:04:26 53° 106° (ESE) 03:08:57
Oscar 19 01 Jul 03:14:49 03:16:38 12° 242° (WSW) 03:18:25 437.125/150
STARS 01 Jul 03:15:25 03:19:39 44° 107° (ESE) 03:23:56 437.465
AIST 1 01 Jul 03:22:44 03:27:12 67° 97° (E) 03:31:34
AO-7 01 Jul 03:35:38 03:43:50 57° 77° (ENE) 03:51:58 29.400- 29.500
ITAMSAT 1 01 Jul 03:40:33 03:45:29 42° 251° (WSW) 03:50:22 435.822/435.867
PHONESAT 2.4 01 Jul 03:42:16 03:44:31 18° 35° (NE) 03:46:46 2401.200-2431.200
Gurwin Techsat 1B 01 Jul 03:52:58 03:55:09 12° 242° (WSW) 03:57:19 435.225
HORYU 2 01 Jul 04:10:54 04:14:15 20° 85° (E) 04:17:33 437.375
AIST 2 01 Jul 04:18:39 04:22:23 31° 235° (SW) 04:26:09 435.215
AO-85 01 Jul 04:22:02 04:25:27 19° 130° (SE) 04:29:02 145.980
KKS-1 01 Jul 04:29:23 04:31:35 13° 273° (W) 04:33:48 437.445
CUBESAT XI-V 01 Jul 04:34:42 04:39:16 63° 105° (ESE) 04:43:54 437.345
MOZHAYETS 4 01 Jul 04:40:04 04:41:53 12° 272° (W) 04:43:42
Cosmos 2499 01 Jul 04:40:44 04:47:24 36° 103° (ESE) 04:54:23 435.465 / 435.565
GONETS M04 01 Jul 04:40:58 04:49:47 61° 100° (E) 04:58:24
STARS 01 Jul 04:53:47 04:56:10 14° 273° (W) 04:58:36 437.465
CUTE-I 01 Jul 05:04:34 05:05:27 10° 89° (E) 05:06:19 437.470
PHONESAT 2.4 01 Jul 05:17:45 05:20:53 73° 200° (SSW) 05:24:03 2401.200-2431.200
NOAA 15 01 Jul 05:20:41 05:25:00 24° 84° (E) 05:29:16 137.62
STRAND 1 01 Jul 05:26:21 05:29:23 16° 115° (ESE) 05:32:26 437.568
AO-7 01 Jul 05:29:12 05:36:04 30° 240° (WSW) 05:42:55 29.400- 29.500
LilacSat-2 01 Jul 05:32:20 05:34:51 17° 86° (E) 05:37:19 437.200
BRITE-PL 01 Jul 05:35:06 05:40:31 40° 83° (E) 05:45:42 437.365/2234.400
HORYU 2 01 Jul 05:46:53 05:50:47 30° 250° (WSW) 05:54:39 437.375
GOMX 1 01 Jul 05:55:23 06:00:00 28° 86° (E) 06:04:23 467.674
CUSAT 1 01 Jul 05:57:44 05:59:54 17° 94° (E) 06:02:24 437.405
AO-85 01 Jul 06:01:21 06:06:09 54° 296° (WNW) 06:11:15 145.980
Cubesat XI-IV 01 Jul 06:07:17 06:12:30 49° 80° (E) 06:17:40 437.490
CUBESAT XI-V 01 Jul 06:16:38 06:17:02 10° 270° (W) 06:17:26 437.345
NOAA 18 01 Jul 06:24:24 06:29:57 78° 77° (ENE) 06:35:25 137.9125
Cosmos 2499 01 Jul 06:33:50 06:40:23 36° 269° (W) 06:47:16 435.465 / 435.565
GONETS M04 01 Jul 06:39:06 06:45:50 25° 262° (W) 06:52:31
CUTE-I 01 Jul 06:40:37 06:46:00 78° 255° (WSW) 06:51:20 437.470
DOVE 4 01 Jul 06:41:37 06:46:18 36° 84° (E) 06:50:40 437.250
ISS 01 Jul 06:45:44 06:49:01 89° 23° (NNE) 06:52:22 145.825
DANDE 01 Jul 06:47:30 06:49:25 18° 90° (E) 06:51:30 436.750
PHONESAT 2.4 01 Jul 06:54:57 06:57:47 29° 185° (S) 07:00:37 2401.200-2431.200
NOAA 15 01 Jul 06:59:53 07:04:47 36° 250° (WSW) 07:09:37 137.62
STRAND 1 01 Jul 07:03:02 07:08:03 54° 280° (W) 07:13:07 437.568
LilacSat-2 01 Jul 07:05:54 07:09:08 26° 252° (WSW) 07:12:20 437.200
BRITE-PL 01 Jul 07:14:01 07:18:39 26° 248° (WSW) 07:23:09 437.365/2234.400
CINEMA 3 01 Jul 07:17:24 07:20:57 22° 86° (E) 07:24:21 145.822/145.860
CANX-2 01 Jul 07:22:25 07:25:57 24° 84° (E) 07:29:27 2200.000
GOMX 1 01 Jul 07:33:13 07:37:59 31° 249° (WSW) 07:42:30 467.674
CUSAT 1 01 Jul 07:39:55 07:41:54 15° 247° (WSW) 07:44:09 437.405
SEEDS 01 Jul 07:40:33 07:44:02 24° 84° (E) 07:47:29 437.485
CUTE 1.7 + AOD 2 01 Jul 07:41:30 07:45:28 35° 82° (E) 07:49:23 437.475
HO-68 01 Jul 07:42:08 07:48:58 44° 80° (E) 07:55:44 435.675
Cubesat XI-IV 01 Jul 07:48:30 07:52:08 19° 245° (WSW) 07:55:44 437.490
PRISM 01 Jul 07:57:34 08:01:41 89° 116° (ESE) 08:05:52 437.425
NOAA 18 01 Jul 08:07:34 08:09:51 13° 241° (WSW) 08:12:08 137.9125
AAUSAT CUBESAT 2 01 Jul 08:11:08 08:14:51 30° 83° (E) 08:18:33 437.432
M-CUBED/EXP-1 PRIME 01 Jul 08:17:34 08:18:51 11° 85° (E) 08:20:06 437.505
DOVE 4 01 Jul 08:19:51 08:23:39 22° 247° (WSW) 08:27:18 437.250
ISS 01 Jul 08:24:18 08:25:54 13° 206° (SSW) 08:27:30 145.825
CUBEBUG 2 01 Jul 08:31:12 08:35:18 42° 82° (E) 08:39:16 437.445
PHONESAT 2.4 01 Jul 08:31:52 08:34:50 36° 168° (SSE) 08:37:48 2401.200-2431.200
ANTELSAT 01 Jul 08:44:23 08:47:33 18° 112° (ESE) 08:50:42 437.575/2403.000
ZACube-1 01 Jul 08:44:56 08:48:28 25° 84° (E) 08:51:55 437.345
COMPASS 1 01 Jul 08:47:47 08:52:01 72° 256° (WSW) 08:56:13 437.405
Oscar 11 01 Jul 08:48:35 08:52:30 31° 83° (E) 08:56:22 145.826/435.025
CINEMA 3 01 Jul 08:54:11 08:58:03 27° 250° (WSW) 09:01:45 145.822/145.860
RS-15 01 Jul 08:54:49 09:02:44 21° 79° (ENE) 09:10:24 29.354- 29.394
CANX-2 01 Jul 08:58:15 09:01:40 23° 250° (WSW) 09:05:04 2200.000
FUNcube-1 01 Jul 09:00:32 09:04:26 36° 82° (E) 09:08:17 145.935
AUBIESAT-1 01 Jul 09:07:56 09:11:39 42° 77° (ENE) 09:15:05 437.475
UWE-3 01 Jul 09:12:11 09:16:27 89° 255° (WSW) 09:20:37 435.000/436.395/437.385
BEESAT 3 01 Jul 09:14:59 09:16:38 12° 132° (SE) 09:18:16 437.485
SEEDS 01 Jul 09:16:12 09:19:36 23° 250° (WSW) 09:22:58 437.485
CUTE 1.7 + AOD 2 01 Jul 09:18:16 09:20:59 17° 248° (WSW) 09:23:40 437.475
HO-68 01 Jul 09:30:15 09:36:24 32° 244° (WSW) 09:42:31 435.675
HUMSAT D 01 Jul 09:32:29 09:35:25 19° 86° (E) 09:38:20 437.325/437.525
DELFI C3 01 Jul 09:33:04 09:36:59 45° 81° (E) 09:40:52 145.870
TIGRISAT 01 Jul 09:33:25 09:38:01 60° 105° (ESE) 09:42:35 435.000
QB50P2 01 Jul 09:38:41 09:39:51 11° 115° (ESE) 09:41:01 145.880/145.840
UNISAT 6 01 Jul 09:39:30 09:44:10 75° 104° (ESE) 09:48:49 437.425
POLYITAN 1 01 Jul 09:41:09 09:42:29 11° 115° (ESE) 09:43:50 437.675
AAUSAT CUBESAT 2 01 Jul 09:47:09 09:50:06 19° 249° (WSW) 09:53:02 437.432
M-CUBED/EXP-1 PRIME 01 Jul 09:49:56 09:53:40 39° 248° (WSW) 09:57:06 437.505
BEESAT 2 01 Jul 09:57:47 10:00:41 19° 128° (SE) 10:03:33 435.950
Cosmos 2491 01 Jul 10:03:55 10:11:29 30° 108° (ESE) 10:18:56 435.465 / 435.565
PHONESAT 2.4 01 Jul 10:08:27 10:11:33 55° 333° (NNW) 10:14:37 2401.200-2431.200
CUBEBUG 2 01 Jul 10:09:22 10:11:29 14° 246° (WSW) 10:13:35 437.445
PCSat 01 Jul 10:09:27 10:14:47 52° 119° (ESE) 10:20:04 145.827
BUGSAT 1 01 Jul 10:19:16 10:20:55 12° 115° (ESE) 10:22:35 437.445
ANTELSAT 01 Jul 10:19:35 10:23:56 38° 278° (W) 10:28:16 437.575/2403.000
ZACube-1 01 Jul 10:21:23 10:24:36 21° 250° (WSW) 10:27:45 437.345
Oscar 11 01 Jul 10:25:16 10:28:22 19° 249° (WSW) 10:31:26 145.826/435.025
FUNcube-1 01 Jul 10:37:55 10:40:21 15° 248° (WSW) 10:42:46 145.935
CUBEBUG 1 01 Jul 10:42:32 10:44:42 13° 88° (E) 10:46:53 437.445
AUBIESAT-1 01 Jul 10:44:12 10:45:38 12° 240° (WSW) 10:47:02 437.475
NANOSAT C BR1 01 Jul 10:49:22 10:53:38 68° 104° (ESE) 10:57:58 145.865
BEESAT 3 01 Jul 10:50:47 10:54:38 54° 296° (WNW) 10:58:26 437.485
QB50P1 01 Jul 10:54:06 10:58:25 83° 103° (ESE) 11:02:48 145.935-145.965
O/OREOS (USA 219) 01 Jul 10:54:50 10:58:40 24° 118° (ESE) 11:02:26 437.305
POPSAT HIP 1 01 Jul 10:57:38 11:01:57 89° 111° (ESE) 11:06:20 437.405
VELOX 1 01 Jul 10:57:51 11:01:00 18° 86° (E) 11:04:06 145.980
50 SAT 01 Jul 11:00:33 11:03:15 19° 85° (E) 11:05:55 437.505
RS-15 01 Jul 11:01:52 11:13:46 86° 242° (WSW) 11:25:07 29.354- 29.394
HUMSAT D 01 Jul 11:07:29 11:11:01 28° 251° (WSW) 11:14:32 437.325/437.525
DUCHIFAT 1 01 Jul 11:08:25 11:12:42 75° 282° (WNW) 11:17:03 145.980
JAS-2 01 Jul 11:09:03 11:13:39 28° 114° (ESE) 11:18:42 435.910
DELFI C3 01 Jul 11:09:52 11:11:23 12° 247° (WSW) 11:12:55 145.870
QB50P2 01 Jul 11:10:51 11:15:06 58° 281° (W) 11:19:24 145.880/145.840
POLYITAN 1 01 Jul 11:13:30 11:17:45 56° 280° (W) 11:22:03 437.675
TIGRISAT 01 Jul 11:13:40 11:15:00 11° 272° (W) 11:16:19 435.000
SPROUT 01 Jul 11:19:02 11:20:57 13° 88° (E) 11:22:51 437.525
UKube-1 01 Jul 11:22:16 11:25:33 20° 85° (E) 11:28:48 .
BEESAT 2 01 Jul 11:35:00 11:38:33 31° 293° (WNW) 11:42:04 435.950
AISAT 01 Jul 11:38:00 11:42:29 57° 79° (E) 11:46:53 437.250
YUBILEINY 01 Jul 11:39:14 11:47:50 59° 89° (E) 11:56:27 435.215
ESTCUBE 1 01 Jul 11:46:28 11:51:04 70° 255° (WSW) 11:55:37 437.505/2401.250
DX 1 01 Jul 11:47:09 11:51:30 52° 80° (E) 11:55:48 434.975-435.025
BUGSAT 1 01 Jul 11:51:37 11:55:47 52° 280° (W) 12:00:01 437.445
PCSat 01 Jul 11:54:09 11:57:41 18° 285° (WNW) 12:01:12 145.827
Cosmos 2491 01 Jul 12:00:03 12:08:36 53° 270° (W) 12:17:04 435.465 / 435.565
CUBEBUG 1 01 Jul 12:16:54 12:21:12 46° 253° (WSW) 12:25:27 437.445
TISAT 1 01 Jul 12:26:58 12:29:58 18° 85° (E) 12:32:55 437.305
VELOX 1 01 Jul 12:33:25 12:37:30 34° 251° (WSW) 12:41:33 145.980
50 SAT 01 Jul 12:33:54 12:36:49 22° 251° (WSW) 12:39:43 437.505
O/OREOS (USA 219) 01 Jul 12:34:04 12:37:59 27° 282° (WNW) 12:41:50 437.305
AIST 2 01 Jul 12:42:30 12:46:38 59° 121° (ESE) 12:50:41 435.215
Oscar 19 01 Jul 12:46:04 12:51:15 80° 104° (ESE) 12:56:32 437.125/150
AO-7 01 Jul 12:46:18 12:47:49 11° 131° (SE) 12:49:21 29.400- 29.500
Cosmos 2504 01 Jul 12:46:54 12:54:21 47° 90° (E) 13:01:24 435.465 / 435.565
SPROUT 01 Jul 12:52:57 12:57:06 45° 254° (WSW) 13:01:11 437.525
JAS-2 01 Jul 12:53:43 12:58:33 33° 275° (W) 13:03:54 435.910
UKube-1 01 Jul 12:57:45 13:01:34 29° 250° (WSW) 13:05:20 .
SO-50 01 Jul 13:05:25 13:06:27 11° 73° (ENE) 13:07:30 436.795
BEESAT 01 Jul 13:13:21 13:14:21 11° 89° (E) 13:15:20 436.000
